Time,TemperatureF,DewpointF,PressureIn,WindDirection,WindDirectionDegrees,WindSpeedMPH,WindSpeedGustMPH,Humidity,HourlyPrecipIn,Conditions,Clouds,dailyrainin,SoftwareType,DateUTC
2013-02-12 00:00:00,31.5,26.6,29.81,West,263,8.0,9.0,82,0.00,,,0.00,Wunderground v.1.15,2013-02-12 05:00:00,
2013-02-12 00:05:00,31.5,26.6,29.81,West,272,8.0,9.0,82,0.00,,,0.00,Wunderground v.1.15,2013-02-12 05:05:00,
2013-02-12 00:10:00,31.4,26.5,29.82,WNW,302,9.0,13.0,82,0.00,,,0.00,Wunderground v.1.15,2013-02-12 05:10:00,
2013-02-12 00:15:00,31.3,26.4,29.82,West,263,12.0,13.0,82,0.00,,,0.00,Wunderground v.1.15,2013-02-12 05:15:00,
2013-02-12 00:20:00,31.3,26.4,29.82,WSW,245,12.0,12.0,82,0.00,,,0.00,Wunderground v.1.15,2013-02-12 05:20:00,
2013-02-12 00:26:00,31.3,26.1,29.82,West,279,13.0,16.0,81,0.00,,,0.00,Wunderground v.1.15,2013-02-12 05:26:00,
2013-02-12 00:35:00,31.2,26.3,29.83,West,267,11.0,18.0,82,0.00,,,0.00,Wunderground v.1.15,2013-02-12 05:35:00,
2013-02-12 00:41:00,31.2,26.0,29.83,West,271,12.0,12.0,81,0.00,,,0.00,Wunderground v.1.15,2013-02-12 05:41:00,
2013-02-12 00:45:00,31.2,26.3,29.83,WSW,255,11.0,12.0,82,0.00,,,0.00,Wunderground v.1.15,2013-02-12 05:45:00,
2013-02-12 00:50:00,31.1,26.2,29.83,WSW,252,11.0,11.0,82,0.00,,,0.00,Wunderground v.1.15,2013-02-12 05:50:00,
2013-02-12 00:56:00,31.1,26.0,29.83,West,277,12.0,12.0,81,0.00,,,0.00,Wunderground v.1.15,2013-02-12 05:56:00,
2013-02-12 01:06:00,31.1,26.2,29.84,WNW,282,10.0,12.0,82,0.00,,,0.00,Wunderground v.1.15,2013-02-12 06:06:00,
2013-02-12 01:11:00,31.0,26.1,29.84,WNW,288,9.0,15.0,82,0.00,,,0.00,Wunderground v.1.15,2013-02-12 06:11:00,
2013-02-12 01:20:00,31.0,25.9,29.84,West,261,12.0,12.0,81,0.00,,,0.00,Wunderground v.1.15,2013-02-12 06:20:00,
2013-02-12 01:25:00,31.0,26.1,29.84,West,265,12.0,12.0,82,0.00,,,0.00,Wunderground v.1.15,2013-02-12 06:25:00,
2013-02-12 01:30:00,31.0,25.9,29.85,WNW,286,12.0,17.0,81,0.00,,,0.00,Wunderground v.1.15,2013-02-12 06:30:00,
2013-02-12 01:36:00,31.0,25.9,29.84,West,271,11.0,17.0,81,0.00,,,0.00,Wunderground v.1.15,2013-02-12 06:36:00,
2013-02-12 01:41:00,30.9,25.8,29.85,West,263,10.0,10.0,81,0.00,,,0.00,Wunderground v.1.15,2013-02-12 06:41:00,
2013-02-12 01:50:00,30.9,25.8,29.85,WNW,295,10.0,10.0,81,0.00,,,0.00,Wunderground v.1.15,2013-02-12 06:50:00,
2013-02-12 02:00:00,30.8,25.7,29.86,West,274,9.0,12.0,81,0.00,,,0.00,Wunderground v.1.15,2013-02-12 07:00:00,
2013-02-12 02:06:00,30.8,25.7,29.86,WNW,286,9.0,12.0,81,0.00,,,0.00,Wunderground v.1.15,2013-02-12 07:06:00,
2013-02-12 02:11:00,30.7,25.6,29.86,WNW,284,10.0,12.0,81,0.00,,,0.00,Wunderground v.1.15,2013-02-12 07:11:00,
2013-02-12 02:20:00,30.7,25.3,29.86,West,263,11.0,11.0,80,0.00,,,0.00,Wunderground v.1.15,2013-02-12 07:20:00,
2013-02-12 02:25:00,30.7,25.6,29.86,West,280,8.0,11.0,81,0.00,,,0.00,Wunderground v.1.15,2013-02-12 07:25:00,
2013-02-12 02:30:00,30.6,25.5,29.87,WNW,282,8.0,9.0,81,0.00,,,0.00,Wunderground v.1.15,2013-02-12 07:30:00,
2013-02-12 02:41:00,30.6,25.2,29.88,West,267,7.0,7.0,80,0.00,,,0.00,Wunderground v.1.15,2013-02-12 07:41:00,
2013-02-12 02:50:00,30.5,25.1,29.88,WNW,298,8.0,10.0,80,0.00,,,0.00,Wunderground v.1.15,2013-02-12 07:50:00,
2013-02-12 02:55:00,30.4,25.0,29.88,West,263,9.0,10.0,80,0.00,,,0.00,Wunderground v.1.15,2013-02-12 07:55:00,
2013-02-12 03:00:00,30.4,25.0,29.88,West,272,9.0,11.0,80,0.00,,,0.00,Wunderground v.1.15,2013-02-12 08:00:00,
2013-02-12 03:11:00,30.3,24.9,29.88,WSW,253,9.0,9.0,80,0.00,,,0.00,Wunderground v.1.15,2013-02-12 08:11:00,
2013-02-12 03:16:00,30.4,25.0,29.89,West,281,9.0,9.0,80,0.00,,,0.00,Wunderground v.1.15,2013-02-12 08:16:00,
2013-02-12 03:25:00,30.3,24.9,29.89,West,281,7.0,12.0,80,0.00,,,0.00,Wunderground v.1.15,2013-02-12 08:25:00,
2013-02-12 03:30:00,30.3,24.9,29.89,WNW,296,8.0,8.0,80,0.00,,,0.00,Wunderground v.1.15,2013-02-12 08:30:00,
2013-02-12 03:35:00,30.3,24.9,29.89,West,264,9.0,9.0,80,0.00,,,0.00,Wunderground v.1.15,2013-02-12 08:35:00,
2013-02-12 03:40:00,30.2,24.8,29.89,WSW,258,9.0,9.0,80,0.00,,,0.00,Wunderground v.1.15,2013-02-12 08:40:00,
2013-02-12 03:45:00,30.2,24.8,29.89,WNW,286,7.0,11.0,80,0.00,,,0.00,Wunderground v.1.15,2013-02-12 08:45:00,
2013-02-12 03:51:00,30.2,24.8,29.89,West,273,5.0,13.0,80,0.00,,,0.00,Wunderground v.1.15,2013-02-12 08:51:00,
2013-02-12 04:00:00,30.1,24.7,29.89,West,262,8.0,8.0,80,0.00,,,0.00,Wunderground v.1.15,2013-02-12 09:00:00,
2013-02-12 04:10:00,30.1,24.7,29.90,West,270,5.0,7.0,80,0.00,,,0.00,Wunderground v.1.15,2013-02-12 09:10:00,
2013-02-12 04:15:00,30.1,24.7,29.90,WSW,239,7.0,7.0,80,0.00,,,0.00,Wunderground v.1.15,2013-02-12 09:15:00,
2013-02-12 04:25:00,30.0,24.6,29.91,SW,221,5.0,7.0,80,0.00,,,0.00,Wunderground v.1.15,2013-02-12 09:25:00,
2013-02-12 04:30:00,30.0,24.9,29.91,West,266,5.0,5.0,81,0.00,,,0.00,Wunderground v.1.15,2013-02-12 09:30:00,
2013-02-12 04:36:00,29.9,24.8,29.91,WSW,249,6.0,7.0,81,0.00,,,0.00,Wunderground v.1.15,2013-02-12 09:36:00,
2013-02-12 04:41:00,29.9,24.8,29.91,West,266,6.0,6.0,81,0.00,,,0.00,Wunderground v.1.15,2013-02-12 09:41:00,
2013-02-12 04:46:00,29.8,24.7,29.91,West,267,5.0,6.0,81,0.00,,,0.00,Wunderground v.1.15,2013-02-12 09:46:00,
2013-02-12 04:56:00,29.8,24.4,29.92,WSW,244,5.0,6.0,80,0.00,,,0.00,Wunderground v.1.15,2013-02-12 09:56:00,
2013-02-12 05:05:00,29.8,24.4,29.92,West,281,7.0,12.0,80,0.00,,,0.00,Wunderground v.1.15,2013-02-12 10:05:00,
2013-02-12 05:11:00,29.8,24.4,29.92,WSW,246,7.0,7.0,80,0.00,,,0.00,Wunderground v.1.15,2013-02-12 10:11:00,
2013-02-12 05:20:00,29.7,24.6,29.93,WSW,249,5.0,5.0,81,0.00,,,0.00,Wunderground v.1.15,2013-02-12 10:20:00,
2013-02-12 05:30:00,29.8,24.7,29.93,WSW,245,7.0,7.0,81,0.00,,,0.00,Wunderground v.1.15,2013-02-12 10:30:00,
2013-02-12 05:36:00,29.8,24.4,29.94,WSW,246,6.0,7.0,80,0.00,,,0.00,Wunderground v.1.15,2013-02-12 10:36:00,
2013-02-12 05:41:00,29.8,24.7,29.94,WSW,257,4.0,4.0,81,0.00,,,0.00,Wunderground v.1.15,2013-02-12 10:41:00,
2013-02-12 05:45:00,29.8,24.7,29.94,WSW,257,4.0,4.0,81,0.00,,,0.00,Wunderground v.1.15,2013-02-12 10:45:00,
2013-02-12 05:55:00,29.8,24.7,29.94,West,273,4.0,10.0,81,0.00,,,0.00,Wunderground v.1.15,2013-02-12 10:55:00,
2013-02-12 06:01:00,29.8,24.7,29.94,WNW,287,4.0,4.0,81,0.00,,,0.00,Wunderground v.1.15,2013-02-12 11:01:00,
2013-02-12 06:10:00,29.8,24.7,29.94,West,279,6.0,11.0,81,0.00,,,0.00,Wunderground v.1.15,2013-02-12 11:10:00,
2013-02-12 06:15:00,29.7,24.6,29.94,WSW,255,7.0,11.0,81,0.00,,,0.00,Wunderground v.1.15,2013-02-12 11:15:00,
2013-02-12 06:20:00,29.7,24.6,29.94,West,262,7.0,9.0,81,0.00,,,0.00,Wunderground v.1.15,2013-02-12 11:20:00,
2013-02-12 06:25:00,29.7,24.6,29.95,West,279,7.0,9.0,81,0.00,,,0.00,Wunderground v.1.15,2013-02-12 11:25:00,
2013-02-12 06:30:00,29.7,24.6,29.95,WSW,254,9.0,9.0,81,0.00,,,0.00,Wunderground v.1.15,2013-02-12 11:30:00,
2013-02-12 06:36:00,29.8,24.4,29.95,West,267,9.0,15.0,80,0.00,,,0.00,Wunderground v.1.15,2013-02-12 11:36:00,
2013-02-12 06:41:00,29.8,24.4,29.95,WSW,257,10.0,10.0,80,0.00,,,0.00,Wunderground v.1.15,2013-02-12 11:41:00,
2013-02-12 06:50:00,29.7,24.3,29.95,WNW,293,10.0,10.0,80,0.00,,,0.00,Wunderground v.1.15,2013-02-12 11:50:00,
2013-02-12 06:55:00,29.6,23.9,29.96,WSW,251,11.0,14.0,79,0.00,,,0.00,Wunderground v.1.15,2013-02-12 11:55:00,
2013-02-12 07:05:00,29.6,23.6,29.96,WNW,284,11.0,13.0,78,0.00,,,0.00,Wunderground v.1.15,2013-02-12 12:05:00,
2013-02-12 07:11:00,29.6,23.3,29.96,West,271,10.0,10.0,77,0.00,,,0.00,Wunderground v.1.15,2013-02-12 12:11:00,
2013-02-12 07:20:00,29.6,23.0,29.97,WNW,286,9.0,10.0,76,0.00,,,0.00,Wunderground v.1.15,2013-02-12 12:20:00,
2013-02-12 07:26:00,29.6,23.3,29.97,West,272,8.0,10.0,77,0.00,,,0.00,Wunderground v.1.15,2013-02-12 12:26:00,
2013-02-12 07:35:00,29.5,22.9,29.97,WNW,289,9.0,10.0,76,0.00,,,0.00,Wunderground v.1.15,2013-02-12 12:35:00,
2013-02-12 07:40:00,29.4,23.1,29.97,West,281,8.0,8.0,77,0.00,,,0.00,Wunderground v.1.15,2013-02-12 12:40:00,
2013-02-12 07:46:00,29.4,23.1,29.98,WSW,258,7.0,8.0,77,0.00,,,0.00,Wunderground v.1.15,2013-02-12 12:46:00,
2013-02-12 07:55:00,29.4,22.8,29.98,WNW,292,9.0,9.0,76,0.00,,,0.00,Wunderground v.1.15,2013-02-12 12:55:00,
2013-02-12 08:05:00,29.3,22.7,29.98,West,267,8.0,9.0,76,0.00,,,0.00,Wunderground v.1.15,2013-02-12 13:05:00,
2013-02-12 08:10:00,29.3,22.4,29.99,West,269,7.0,7.0,75,0.00,,,0.00,Wunderground v.1.15,2013-02-12 13:10:00,
2013-02-12 08:15:00,29.3,22.4,29.99,WNW,288,7.0,7.0,75,0.00,,,0.00,Wunderground v.1.15,2013-02-12 13:15:00,
2013-02-12 08:21:00,29.3,22.7,29.98,West,277,5.0,5.0,76,0.00,,,0.00,Wunderground v.1.15,2013-02-12 13:21:00,
2013-02-12 08:26:00,29.3,22.7,29.98,West,261,5.0,5.0,76,0.00,,,0.00,Wunderground v.1.15,2013-02-12 13:26:00,
2013-02-12 08:35:00,29.3,22.7,29.99,West,273,4.0,5.0,76,0.00,,,0.00,Wunderground v.1.15,2013-02-12 13:35:00,
2013-02-12 08:40:00,29.3,22.7,29.98,West,269,5.0,5.0,76,0.00,,,0.00,Wunderground v.1.15,2013-02-12 13:40:00,
2013-02-12 08:50:00,29.3,22.7,29.99,West,278,6.0,6.0,76,0.00,,,0.00,Wunderground v.1.15,2013-02-12 13:50:00,
2013-02-12 08:56:00,29.3,22.7,29.98,West,273,5.0,6.0,76,0.00,,,0.00,Wunderground v.1.15,2013-02-12 13:56:00,
2013-02-12 09:05:00,29.4,23.1,29.99,West,276,7.0,8.0,77,0.00,,,0.00,Wunderground v.1.15,2013-02-12 14:05:00,
2013-02-12 09:10:00,29.4,23.4,29.99,West,267,7.0,8.0,78,0.00,,,0.00,Wunderground v.1.15,2013-02-12 14:10:00,
2013-02-12 09:15:00,29.4,23.4,30.00,WSW,254,7.0,8.0,78,0.00,,,0.00,Wunderground v.1.15,2013-02-12 14:15:00,
2013-02-12 09:20:00,29.5,23.8,29.99,WNW,297,6.0,8.0,79,0.00,,,0.00,Wunderground v.1.15,2013-02-12 14:20:00,
2013-02-12 09:26:00,29.5,23.5,29.99,WNW,287,6.0,8.0,78,0.00,,,0.00,Wunderground v.1.15,2013-02-12 14:26:00,
2013-02-12 09:35:00,29.5,23.5,29.99,West,263,9.0,12.0,78,0.00,,,0.00,Wunderground v.1.15,2013-02-12 14:35:00,
2013-02-12 09:40:00,29.5,23.5,29.99,West,276,8.0,8.0,78,0.00,,,0.00,Wunderground v.1.15,2013-02-12 14:40:00,
2013-02-12 09:45:00,29.5,23.5,29.99,WNW,289,8.0,9.0,78,0.00,,,0.00,Wunderground v.1.15,2013-02-12 14:45:00,
2013-02-12 09:50:00,29.6,23.6,30.00,WNW,282,7.0,9.0,78,0.00,,,0.00,Wunderground v.1.15,2013-02-12 14:50:00,
2013-02-12 09:55:00,29.6,23.6,29.99,West,267,8.0,9.0,78,0.00,,,0.00,Wunderground v.1.15,2013-02-12 14:55:00,
2013-02-12 10:00:00,29.6,23.6,29.99,West,264,9.0,13.0,78,0.00,,,0.00,Wunderground v.1.15,2013-02-12 15:00:00,
2013-02-12 10:10:00,29.5,23.5,29.99,West,263,11.0,11.0,78,0.00,,,0.00,Wunderground v.1.15,2013-02-12 15:10:00,
2013-02-12 10:15:00,29.5,23.8,30.00,West,271,10.0,11.0,79,0.00,,,0.00,Wunderground v.1.15,2013-02-12 15:15:00,
2013-02-12 10:21:00,29.6,23.9,30.00,West,277,7.0,7.0,79,0.00,,,0.00,Wunderground v.1.15,2013-02-12 15:21:00,
2013-02-12 10:26:00,29.6,23.9,30.00,WNW,291,5.0,7.0,79,0.00,,,0.00,Wunderground v.1.15,2013-02-12 15:26:00,
2013-02-12 10:31:00,29.6,23.9,30.00,West,277,5.0,5.0,79,0.00,,,0.00,Wunderground v.1.15,2013-02-12 15:31:00,
2013-02-12 10:36:00,29.6,23.9,30.00,West,268,6.0,6.0,79,0.00,,,0.00,Wunderground v.1.15,2013-02-12 15:36:00,
2013-02-12 10:45:00,29.7,24.0,29.99,SW,236,5.0,6.0,79,0.00,,,0.00,Wunderground v.1.15,2013-02-12 15:45:00,
2013-02-12 10:50:00,29.8,24.1,29.99,West,261,4.0,4.0,79,0.00,,,0.00,Wunderground v.1.15,2013-02-12 15:50:00,
2013-02-12 10:56:00,29.8,24.4,30.00,WSW,246,3.0,4.0,80,0.00,,,0.00,Wunderground v.1.15,2013-02-12 15:56:00,
2013-02-12 11:05:00,29.9,24.8,30.00,West,275,3.0,4.0,81,0.00,,,0.00,Wunderground v.1.15,2013-02-12 16:05:00,
2013-02-12 11:10:00,29.9,24.8,30.00,WSW,245,3.0,3.0,81,0.00,,,0.00,Wunderground v.1.15,2013-02-12 16:10:00,
2013-02-12 11:20:00,29.9,25.1,30.00,NW,304,2.0,4.0,82,0.00,,,0.00,Wunderground v.1.15,2013-02-12 16:20:00,
2013-02-12 11:26:00,29.8,25.0,30.00,West,268,3.0,4.0,82,0.00,,,0.00,Wunderground v.1.15,2013-02-12 16:26:00,
2013-02-12 11:36:00,29.8,24.7,30.00,WSW,244,5.0,6.0,81,0.00,,,0.00,Wunderground v.1.15,2013-02-12 16:36:00,
2013-02-12 11:41:00,29.8,24.7,30.00,WNW,282,5.0,5.0,81,0.00,,,0.00,Wunderground v.1.15,2013-02-12 16:41:00,
2013-02-12 11:46:00,29.8,24.4,29.99,West,263,5.0,5.0,80,0.00,,,0.00,Wunderground v.1.15,2013-02-12 16:46:00,
2013-02-12 11:51:00,29.8,24.4,29.99,WNW,295,6.0,6.0,80,0.00,,,0.00,Wunderground v.1.15,2013-02-12 16:51:00,
2013-02-12 12:01:00,29.7,24.6,29.99,WSW,248,5.0,5.0,81,0.00,,,0.00,Wunderground v.1.15,2013-02-12 17:01:00,
2013-02-12 12:11:00,29.8,24.4,29.99,West,277,6.0,8.0,80,0.00,,,0.00,Wunderground v.1.15,2013-02-12 17:11:00,
2013-02-12 12:20:00,29.8,24.4,29.99,West,263,6.0,6.0,80,0.00,,,0.00,Wunderground v.1.15,2013-02-12 17:20:00,
2013-02-12 12:25:00,29.9,24.5,29.99,WNW,292,6.0,6.0,80,0.00,,,0.00,Wunderground v.1.15,2013-02-12 17:25:00,
2013-02-12 12:31:00,29.9,24.5,29.99,West,267,5.0,6.0,80,0.00,,,0.00,Wunderground v.1.15,2013-02-12 17:31:00,
2013-02-12 12:41:00,29.8,24.4,29.98,WSW,256,6.0,6.0,80,0.00,,,0.00,Wunderground v.1.15,2013-02-12 17:41:00,
2013-02-12 12:51:00,30.0,24.6,29.97,WNW,285,3.0,12.0,80,0.00,,,0.00,Wunderground v.1.15,2013-02-12 17:51:00,
2013-02-12 12:56:00,29.9,24.2,29.97,West,269,6.0,12.0,79,0.00,,,0.00,Wunderground v.1.15,2013-02-12 17:56:00,
2013-02-12 13:01:00,29.9,24.2,29.97,West,263,7.0,9.0,79,0.00,,,0.00,Wunderground v.1.15,2013-02-12 18:01:00,
2013-02-12 13:11:00,29.9,23.9,29.97,West,280,7.0,7.0,78,0.00,,,0.00,Wunderground v.1.15,2013-02-12 18:11:00,
2013-02-12 13:21:00,30.1,24.1,29.97,West,281,4.0,14.0,78,0.00,,,0.00,Wunderground v.1.15,2013-02-12 18:21:00,
2013-02-12 13:26:00,30.0,24.0,29.97,West,264,5.0,14.0,78,0.00,,,0.00,Wunderground v.1.15,2013-02-12 18:26:00,
2013-02-12 13:35:00,30.1,24.1,29.96,WSW,244,3.0,5.0,78,0.00,,,0.00,Wunderground v.1.15,2013-02-12 18:35:00,
2013-02-12 13:41:00,30.1,24.4,29.96,West,278,3.0,5.0,79,0.00,,,0.00,Wunderground v.1.15,2013-02-12 18:41:00,
2013-02-12 13:50:00,29.8,24.1,29.96,West,276,6.0,6.0,79,0.00,,,0.00,Wunderground v.1.15,2013-02-12 18:50:00,
2013-02-12 13:55:00,29.8,24.4,29.95,West,264,5.0,6.0,80,0.00,,,0.00,Wunderground v.1.15,2013-02-12 18:55:00,
2013-02-12 14:05:00,29.7,24.6,29.95,West,263,5.0,5.0,81,0.00,,,0.00,Wunderground v.1.15,2013-02-12 19:05:00,
2013-02-12 14:10:00,29.8,24.7,29.94,West,268,4.0,4.0,81,0.00,,,0.00,Wunderground v.1.15,2013-02-12 19:10:00,
2013-02-12 14:16:00,29.8,24.7,29.95,WNW,288,4.0,6.0,81,0.00,,,0.00,Wunderground v.1.15,2013-02-12 19:16:00,
2013-02-12 14:25:00,29.9,24.5,29.94,WSW,257,5.0,5.0,80,0.00,,,0.00,Wunderground v.1.15,2013-02-12 19:25:00,
2013-02-12 14:35:00,30.0,24.3,29.93,WNW,292,6.0,10.0,79,0.00,,,0.00,Wunderground v.1.15,2013-02-12 19:35:00,
2013-02-12 14:40:00,29.8,24.1,29.93,West,267,8.0,9.0,79,0.00,,,0.00,Wunderground v.1.15,2013-02-12 19:40:00,
2013-02-12 14:45:00,29.8,24.1,29.93,West,277,8.0,9.0,79,0.00,,,0.00,Wunderground v.1.15,2013-02-12 19:45:00,
2013-02-12 14:55:00,29.8,24.4,29.92,West,277,6.0,11.0,80,0.00,,,0.00,Wunderground v.1.15,2013-02-12 19:55:00,
2013-02-12 15:01:00,29.7,24.3,29.92,West,279,7.0,8.0,80,0.00,,,0.00,Wunderground v.1.15,2013-02-12 20:01:00,
2013-02-12 15:06:00,29.7,24.3,29.92,West,278,7.0,8.0,80,0.00,,,0.00,Wunderground v.1.15,2013-02-12 20:06:00,
2013-02-12 15:15:00,29.7,24.0,29.92,WNW,290,7.0,8.0,79,0.00,,,0.00,Wunderground v.1.15,2013-02-12 20:15:00,
2013-02-12 15:20:00,29.8,24.4,29.91,West,277,5.0,5.0,80,0.00,,,0.00,Wunderground v.1.15,2013-02-12 20:20:00,
2013-02-12 15:31:00,29.8,24.1,29.92,West,281,7.0,7.0,79,0.00,,,0.00,Wunderground v.1.15,2013-02-12 20:31:00,
2013-02-12 15:40:00,29.8,24.4,29.92,WSW,247,6.0,12.0,80,0.00,,,0.00,Wunderground v.1.15,2013-02-12 20:40:00,
2013-02-12 15:46:00,29.7,24.0,29.92,West,263,8.0,12.0,79,0.00,,,0.00,Wunderground v.1.15,2013-02-12 20:46:00,
2013-02-12 15:55:00,29.7,24.3,29.93,West,273,7.0,11.0,80,0.00,,,0.00,Wunderground v.1.15,2013-02-12 20:55:00,
2013-02-12 16:01:00,29.6,24.2,29.93,WNW,283,7.0,9.0,80,0.00,,,0.00,Wunderground v.1.15,2013-02-12 21:01:00,
2013-02-12 16:06:00,29.6,24.2,29.93,West,259,7.0,9.0,80,0.00,,,0.00,Wunderground v.1.15,2013-02-12 21:06:00,
2013-02-12 16:15:00,29.7,24.3,29.93,WNW,282,5.0,6.0,80,0.00,,,0.00,Wunderground v.1.15,2013-02-12 21:15:00,
2013-02-12 16:25:00,29.8,24.4,29.93,SW,227,4.0,4.0,80,0.00,,,0.00,Wunderground v.1.15,2013-02-12 21:25:00,
2013-02-12 16:31:00,29.7,24.3,29.94,West,261,4.0,4.0,80,0.00,,,0.00,Wunderground v.1.15,2013-02-12 21:31:00,
2013-02-12 16:36:00,29.7,24.6,29.94,WSW,255,3.0,4.0,81,0.00,,,0.00,Wunderground v.1.15,2013-02-12 21:36:00,
2013-02-12 16:46:00,29.5,24.1,29.94,West,278,4.0,5.0,80,0.00,,,0.00,Wunderground v.1.15,2013-02-12 21:46:00,
2013-02-12 16:56:00,29.2,24.1,29.94,WSW,257,5.0,5.0,81,0.00,,,0.00,Wunderground v.1.15,2013-02-12 21:56:00,
2013-02-12 17:01:00,29.0,23.9,29.94,West,280,6.0,6.0,81,0.00,,,0.00,Wunderground v.1.15,2013-02-12 22:01:00,
2013-02-12 17:10:00,28.9,23.8,29.94,West,263,4.0,4.0,81,0.00,,,0.00,Wunderground v.1.15,2013-02-12 22:10:00,
2013-02-12 17:15:00,28.8,23.7,29.94,West,261,4.0,5.0,81,0.00,,,0.00,Wunderground v.1.15,2013-02-12 22:15:00,
2013-02-12 17:20:00,28.7,23.3,29.94,West,267,4.0,5.0,80,0.00,,,0.00,Wunderground v.1.15,2013-02-12 22:20:00,
2013-02-12 17:31:00,28.5,23.1,29.94,SW,235,4.0,4.0,80,0.00,,,0.00,Wunderground v.1.15,2013-02-12 22:31:00,
2013-02-12 17:40:00,28.4,23.0,29.94,WSW,248,4.0,4.0,80,0.00,,,0.00,Wunderground v.1.15,2013-02-12 22:40:00,
2013-02-12 17:46:00,28.4,23.3,29.94,West,275,3.0,4.0,81,0.00,,,0.00,Wunderground v.1.15,2013-02-12 22:46:00,
2013-02-12 17:56:00,28.3,23.2,29.94,West,259,3.0,5.0,81,0.00,,,0.00,Wunderground v.1.15,2013-02-12 22:56:00,
2013-02-12 18:05:00,28.3,23.5,29.95,NW,307,3.0,3.0,82,0.00,,,0.00,Wunderground v.1.15,2013-02-12 23:05:00,
2013-02-12 18:10:00,28.2,23.4,29.94,WSW,250,3.0,3.0,82,0.00,,,0.00,Wunderground v.1.15,2013-02-12 23:10:00,
2013-02-12 18:16:00,28.1,23.3,29.94,WNW,288,4.0,4.0,82,0.00,,,0.00,Wunderground v.1.15,2013-02-12 23:16:00,
2013-02-12 18:25:00,28.0,23.2,29.94,West,267,5.0,7.0,82,0.00,,,0.00,Wunderground v.1.15,2013-02-12 23:25:00,
2013-02-12 18:35:00,27.9,22.8,29.94,West,274,4.0,5.0,81,0.00,,,0.00,Wunderground v.1.15,2013-02-12 23:35:00,
2013-02-12 18:40:00,27.8,22.7,29.94,WSW,238,4.0,6.0,81,0.00,,,0.00,Wunderground v.1.15,2013-02-12 23:40:00,
2013-02-12 18:50:00,27.8,22.7,29.95,West,267,5.0,5.0,81,0.00,,,0.00,Wunderground v.1.15,2013-02-12 23:50:00,
2013-02-12 19:01:00,27.6,22.2,29.95,West,268,5.0,6.0,80,0.00,,,0.00,Wunderground v.1.15,2013-02-13 00:01:00,
2013-02-12 19:10:00,27.6,21.9,29.95,SW,223,5.0,5.0,79,0.00,,,0.00,Wunderground v.1.15,2013-02-13 00:10:00,
2013-02-12 19:16:00,27.6,21.9,29.94,West,272,5.0,6.0,79,0.00,,,0.00,Wunderground v.1.15,2013-02-13 00:16:00,
2013-02-12 19:26:00,27.4,22.0,29.95,West,270,6.0,10.0,80,0.00,,,0.00,Wunderground v.1.15,2013-02-13 00:26:00,
2013-02-12 19:35:00,27.3,21.9,29.94,WSW,254,8.0,11.0,80,0.00,,,0.00,Wunderground v.1.15,2013-02-13 00:35:00,
2013-02-12 19:41:00,27.3,21.9,29.94,WNW,284,7.0,7.0,80,0.00,,,0.00,Wunderground v.1.15,2013-02-13 00:41:00,
2013-02-12 19:50:00,27.1,21.7,29.94,West,262,7.0,7.0,80,0.00,,,0.00,Wunderground v.1.15,2013-02-13 00:50:00,
2013-02-12 19:55:00,27.1,22.0,29.95,West,276,8.0,10.0,81,0.00,,,0.00,Wunderground v.1.15,2013-02-13 00:55:00,
2013-02-12 20:00:00,27.1,22.0,29.94,West,277,7.0,7.0,81,0.00,,,0.00,Wunderground v.1.15,2013-02-13 01:00:00,
2013-02-12 20:06:00,27.0,21.9,29.94,West,268,6.0,7.0,81,0.00,,,0.00,Wunderground v.1.15,2013-02-13 01:06:00,
2013-02-12 20:15:00,26.9,21.6,29.94,West,276,6.0,8.0,80,0.00,,,0.00,Wunderground v.1.15,2013-02-13 01:15:00,
2013-02-12 20:21:00,26.9,21.3,29.94,WSW,255,6.0,6.0,79,0.00,,,0.00,Wunderground v.1.15,2013-02-13 01:21:00,
2013-02-12 20:30:00,26.9,21.3,29.94,WSW,251,3.0,3.0,79,0.00,,,0.00,Wunderground v.1.15,2013-02-13 01:30:00,
2013-02-12 20:40:00,26.9,21.3,29.94,West,264,3.0,3.0,79,0.00,,,0.00,Wunderground v.1.15,2013-02-13 01:40:00,
2013-02-12 20:55:00,26.8,21.5,29.94,WSW,244,5.0,5.0,80,0.00,,,0.00,Wunderground v.1.15,2013-02-13 01:55:00,
2013-02-12 21:00:00,26.8,21.5,29.94,WSW,256,5.0,5.0,80,0.00,,,0.00,Wunderground v.1.15,2013-02-13 02:00:00,
2013-02-12 21:15:00,26.8,21.5,29.93,SW,232,3.0,3.0,80,0.00,,,0.00,Wunderground v.1.15,2013-02-13 02:15:00,
2013-02-12 21:20:00,26.7,21.1,29.94,West,265,4.0,7.0,79,0.00,,,0.00,Wunderground v.1.15,2013-02-13 02:20:00,
2013-02-12 21:25:00,26.7,21.1,29.94,West,265,5.0,13.0,79,0.00,,,0.00,Wunderground v.1.15,2013-02-13 02:25:00,
2013-02-12 21:35:00,26.6,21.0,29.93,West,276,6.0,6.0,79,0.00,,,0.00,Wunderground v.1.15,2013-02-13 02:35:00,
2013-02-12 21:41:00,26.6,21.0,29.93,West,261,3.0,7.0,79,0.00,,,0.00,Wunderground v.1.15,2013-02-13 02:41:00,
2013-02-12 21:50:00,26.5,20.9,29.93,West,274,6.0,6.0,79,0.00,,,0.00,Wunderground v.1.15,2013-02-13 02:50:00,
2013-02-12 22:01:00,26.5,21.2,29.93,WNW,286,7.0,8.0,80,0.00,,,0.00,Wunderground v.1.15,2013-02-13 03:01:00,
2013-02-12 22:10:00,26.4,21.1,29.92,WNW,287,9.0,12.0,80,0.00,,,0.00,Wunderground v.1.15,2013-02-13 03:10:00,
2013-02-12 22:15:00,26.4,21.1,29.92,WNW,288,8.0,8.0,80,0.00,,,0.00,Wunderground v.1.15,2013-02-13 03:15:00,
2013-02-12 22:25:00,26.3,21.0,29.91,West,273,7.0,7.0,80,0.00,,,0.00,Wunderground v.1.15,2013-02-13 03:25:00,
2013-02-12 22:30:00,26.3,21.3,29.92,WSW,253,7.0,7.0,81,0.00,,,0.00,Wunderground v.1.15,2013-02-13 03:30:00,
2013-02-12 22:40:00,26.3,21.0,29.92,West,263,7.0,9.0,80,0.00,,,0.00,Wunderground v.1.15,2013-02-13 03:40:00,
2013-02-12 22:46:00,26.3,21.3,29.92,West,267,9.0,9.0,81,0.00,,,0.00,Wunderground v.1.15,2013-02-13 03:46:00,
2013-02-12 22:51:00,26.3,21.3,29.92,WNW,284,8.0,9.0,81,0.00,,,0.00,Wunderground v.1.15,2013-02-13 03:51:00,
2013-02-12 23:00:00,26.4,21.4,29.92,WNW,284,5.0,5.0,81,0.00,,,0.00,Wunderground v.1.15,2013-02-13 04:00:00,
2013-02-12 23:06:00,26.4,21.4,29.91,WNW,293,5.0,5.0,81,0.00,,,0.00,Wunderground v.1.15,2013-02-13 04:06:00,
2013-02-12 23:16:00,26.4,21.4,29.91,WSW,257,7.0,7.0,81,0.00,,,0.00,Wunderground v.1.15,2013-02-13 04:16:00,
2013-02-12 23:25:00,26.4,21.4,29.91,West,281,6.0,9.0,81,0.00,,,0.00,Wunderground v.1.15,2013-02-13 04:25:00,
2013-02-12 23:31:00,26.4,21.4,29.91,West,273,5.0,5.0,81,0.00,,,0.00,Wunderground v.1.15,2013-02-13 04:31:00,
2013-02-12 23:36:00,26.4,21.4,29.91,West,276,4.0,5.0,81,0.00,,,0.00,Wunderground v.1.15,2013-02-13 04:36:00,
2013-02-12 23:41:00,26.5,21.7,29.90,West,271,4.0,4.0,82,0.00,,,0.00,Wunderground v.1.15,2013-02-13 04:41:00,
2013-02-12 23:50:00,26.6,21.6,29.90,West,264,4.0,4.0,81,0.00,,,0.00,Wunderground v.1.15,2013-02-13 04:50:00,
2013-02-12 23:55:00,26.7,21.7,29.90,West,259,4.0,4.0,81,0.00,,,0.00,Wunderground v.1.15,2013-02-13 04:55:00,